LUCH-5B

Last updated on Sun Oct 06 2024 00:02:39 GMT+0000 (Coordinated Universal Time)

1 38977U 12061A 24279.18007757 -.00000123 00000+0 00000+0 0 9998 2 38977 9.1282 55.7104 0006389 145.3090 221.8597 1.00272690 43398
UTC large
Height (km)
Speed (km/s)
/
Latitude / Longitude
Inclination (degrees)
Orbital Period (minutes)
Azimuth
Elevation
Range (km)
Doppler Factor

Next 0 passes for location: London (51.5072 / 0.1276)

Sorry there are no passes over London.